TimeEDT,TemperatureF,Dew PointF,Humidity,Sea Level PressureIn,VisibilityMPH,Wind Direction,Wind SpeedMPH,Gust SpeedMPH,PrecipitationIn,Events,Conditions,WindDirDegrees,DateUTC
12:15 AM,53.6,41.0,62,29.81,10.0,South,16.1,23.0,N/A,,Overcast,170,2013-03-11 04:15:00
12:35 AM,53.6,41.0,62,29.81,10.0,South,21.9,27.6,N/A,,Overcast,170,2013-03-11 04:35:00
12:55 AM,53.6,42.8,67,29.81,10.0,South,18.4,28.8,N/A,,Overcast,180,2013-03-11 04:55:00
1:15 AM,53.6,42.8,67,29.81,10.0,South,18.4,24.2,N/A,,Overcast,180,2013-03-11 05:15:00
1:35 AM,51.8,42.8,71,29.80,10.0,South,19.6,36.8,N/A,Rain,Light Rain,180,2013-03-11 05:35:00
2:15 AM,50.0,46.4,87,29.79,10.0,South,17.3,28.8,0.02,Rain,Light Rain,180,2013-03-11 06:15:00
2:55 AM,50.0,46.4,87,29.77,10.0,South,17.3,25.3,0.02,,Mostly Cloudy,180,2013-03-11 06:55:00
3:15 AM,50.0,46.4,87,29.77,10.0,South,13.8,24.2,N/A,,Mostly Cloudy,170,2013-03-11 07:15:00
3:35 AM,50.0,46.4,87,29.77,10.0,South,18.4,26.5,N/A,Rain,Light Rain,170,2013-03-11 07:35:00
3:55 AM,50.0,46.4,87,29.76,10.0,South,21.9,26.5,N/A,Rain,Light Rain,170,2013-03-11 07:55:00
4:15 AM,50.0,46.4,87,29.76,10.0,South,18.4,27.6,N/A,,Light Drizzle,170,2013-03-11 08:15:00
4:55 AM,50.0,46.4,87,29.74,10.0,South,13.8,26.5,N/A,,Overcast,180,2013-03-11 08:55:00
5:15 AM,50.0,46.4,87,29.73,10.0,South,13.8,20.7,N/A,,Overcast,170,2013-03-11 09:15:00
5:35 AM,50.0,46.4,87,29.73,10.0,South,17.3,24.2,N/A,,Overcast,170,2013-03-11 09:35:00
5:55 AM,50.0,46.4,87,29.71,10.0,South,21.9,32.2,N/A,,Overcast,170,2013-03-11 09:55:00
6:15 AM,50.0,46.4,87,29.73,10.0,South,21.9,32.2,N/A,,Overcast,170,2013-03-11 10:15:00
6:35 AM,50.0,46.4,87,29.74,10.0,South,21.9,35.7,N/A,Rain,Light Rain,180,2013-03-11 10:35:00
6:55 AM,50.0,46.4,87,29.74,7.0,South,18.4,32.2,0.01,Rain,Light Rain,170,2013-03-11 10:55:00
7:15 AM,48.2,46.4,93,29.74,10.0,South,24.2,33.4,0.01,Rain,Light Rain,170,2013-03-11 11:15:00
7:35 AM,48.2,46.4,93,29.72,7.0,SSE,20.7,31.1,0.02,Rain,Rain,160,2013-03-11 11:35:00
7:55 AM,48.2,46.4,93,29.71,10.0,SSE,19.6,32.2,0.02,Rain,Light Rain,160,2013-03-11 11:55:00
8:15 AM,46.4,46.4,100,29.73,7.0,South,19.6,28.8,0.01,Rain,Light Rain,170,2013-03-11 12:15:00
8:35 AM,46.4,46.4,100,29.74,7.0,SSE,18.4,24.2,0.03,Rain,Light Rain,160,2013-03-11 12:35:00
8:55 AM,46.4,46.4,100,29.72,7.0,SSE,21.9,28.8,0.05,Rain,Light Rain,160,2013-03-11 12:55:00
9:15 AM,48.2,48.2,100,29.72,10.0,SSE,18.4,25.3,N/A,,Overcast,160,2013-03-11 13:15:00
9:35 AM,48.2,48.2,100,29.72,10.0,SSE,17.3,23.0,N/A,,Overcast,160,2013-03-11 13:35:00
9:55 AM,50.0,50.0,100,29.72,10.0,South,15.0,25.3,N/A,,Overcast,170,2013-03-11 13:55:00
10:15 AM,50.0,48.2,94,29.70,10.0,South,19.6,27.6,N/A,,Overcast,170,2013-03-11 14:15:00
10:35 AM,50.0,46.4,87,29.69,10.0,South,15.0,24.2,N/A,Rain,Light Rain,170,2013-03-11 14:35:00
10:55 AM,50.0,46.4,87,29.68,10.0,South,15.0,21.9,N/A,,Overcast,170,2013-03-11 14:55:00
11:15 AM,48.2,46.4,93,29.66,10.0,South,16.1,21.9,N/A,Rain,Light Rain,170,2013-03-11 15:15:00
11:35 AM,48.2,46.4,93,29.65,10.0,SSE,12.7,18.4,N/A,,Overcast,160,2013-03-11 15:35:00
11:55 AM,50.0,46.4,87,29.64,10.0,SSE,16.1,23.0,N/A,,Overcast,160,2013-03-11 15:55:00
12:15 PM,50.0,46.4,87,29.63,7.0,SSE,15.0,23.0,N/A,Rain,Rain,160,2013-03-11 16:15:00
12:35 PM,50.0,46.4,87,29.62,5.0,SSE,11.5,20.7,0.05,Rain,Rain,160,2013-03-11 16:35:00
12:55 PM,50.0,48.2,94,29.59,10.0,SSE,17.3,21.9,0.07,Rain,Light Rain,160,2013-03-11 16:55:00
1:15 PM,50.0,48.2,94,29.59,4.0,South,13.8,19.6,0.05,Rain,Rain,170,2013-03-11 17:15:00
1:35 PM,50.0,48.2,94,29.57,5.0,South,11.5,20.7,0.10,Rain,Rain,180,2013-03-11 17:35:00
1:55 PM,50.0,50.0,100,29.57,4.0,South,13.8,20.7,0.18,Rain,Rain,190,2013-03-11 17:55:00
2:15 PM,50.0,50.0,100,29.58,2.5,SW,21.9,33.4,0.11,Rain,Rain,230,2013-03-11 18:15:00
2:35 PM,46.4,44.6,93,29.60,5.0,WSW,24.2,33.4,0.12,Rain,Rain,250,2013-03-11 18:35:00
2:55 PM,46.4,44.6,93,29.59,10.0,WSW,17.3,23.0,0.13,Rain,Light Rain,250,2013-03-11 18:55:00
3:15 PM,46.4,44.6,93,29.60,7.0,WSW,13.8,20.7,0.02,Rain,Light Rain,240,2013-03-11 19:15:00
3:35 PM,46.4,44.6,93,29.60,5.0,West,13.8,-,0.02,Rain,Light Rain,260,2013-03-11 19:35:00
3:55 PM,46.4,44.6,93,29.60,10.0,WSW,17.3,26.5,0.02,,Overcast,250,2013-03-11 19:55:00
4:15 PM,46.4,41.0,81,29.60,10.0,WSW,20.7,28.8,N/A,,Overcast,250,2013-03-11 20:15:00
4:35 PM,46.4,41.0,81,29.60,10.0,West,23.0,29.9,N/A,,Overcast,260,2013-03-11 20:35:00
4:55 PM,44.6,41.0,87,29.62,10.0,West,17.3,29.9,N/A,,Overcast,270,2013-03-11 20:55:00
5:15 PM,44.6,39.2,81,29.63,10.0,West,19.6,25.3,N/A,,Overcast,260,2013-03-11 21:15:00
5:35 PM,44.6,37.4,76,29.64,10.0,West,23.0,31.1,N/A,,Overcast,270,2013-03-11 21:35:00
5:55 PM,42.8,37.4,81,29.66,10.0,West,19.6,26.5,N/A,,Overcast,260,2013-03-11 21:55:00
6:15 PM,42.8,35.6,76,29.68,10.0,WSW,15.0,25.3,N/A,,Overcast,250,2013-03-11 22:15:00
6:35 PM,42.8,37.4,81,29.69,10.0,WSW,17.3,21.9,N/A,,Overcast,250,2013-03-11 22:35:00
7:15 PM,41.0,33.8,76,29.71,10.0,West,18.4,26.5,N/A,,Overcast,260,2013-03-11 23:15:00
7:35 PM,39.2,33.8,81,29.71,10.0,West,19.6,25.3,N/A,,Overcast,270,2013-03-11 23:35:00
7:55 PM,39.2,33.8,81,29.72,10.0,West,16.1,23.0,N/A,,Overcast,260,2013-03-11 23:55:00
8:15 PM,37.4,33.8,87,29.73,10.0,West,18.4,25.3,N/A,,Overcast,260,2013-03-12 00:15:00
8:35 PM,37.4,33.8,87,29.74,10.0,WSW,17.3,23.0,N/A,,Overcast,250,2013-03-12 00:35:00
8:55 PM,37.4,32.0,81,29.76,10.0,West,11.5,24.2,N/A,,Overcast,260,2013-03-12 00:55:00
9:15 PM,37.4,32.0,81,29.77,10.0,West,18.4,28.8,N/A,,Overcast,260,2013-03-12 01:15:00
9:35 PM,35.6,32.0,87,29.78,10.0,WSW,15.0,23.0,N/A,,Overcast,250,2013-03-12 01:35:00
9:55 PM,35.6,32.0,87,29.78,10.0,WSW,15.0,19.6,N/A,,Overcast,250,2013-03-12 01:55:00
10:15 PM,35.6,32.0,87,29.79,10.0,West,16.1,21.9,N/A,,Overcast,260,2013-03-12 02:15:00
10:35 PM,35.6,33.8,93,29.81,10.0,West,13.8,-,N/A,,Overcast,270,2013-03-12 02:35:00
10:55 PM,35.6,32.0,87,29.81,10.0,West,15.0,18.4,N/A,,Overcast,260,2013-03-12 02:55:00
11:15 PM,35.6,32.0,87,29.81,10.0,West,16.1,-,N/A,,Overcast,260,2013-03-12 03:15:00
11:35 PM,33.8,32.0,93,29.81,10.0,West,16.1,-,N/A,,Overcast,260,2013-03-12 03:35:00
11:55 PM,33.8,32.0,93,29.81,10.0,West,17.3,20.7,N/A,,Overcast,270,2013-03-12 03:55:00